| time (UTC) | temp F | wind direction | speed knots | gust knots | rain 1hr in | rain 24hr in | rain mn in | humidity % | barometer mb |
| 20260503192515 | 63 | 180 | 3.5 | 7.8 | 0.00 | 0.00 | 0.00 | 61 | 1013.3 |
| 20260503191515 | 63 | 45 | 1.7 | 2.6 | 0.00 | 0.00 | 0.00 | 62 | 1013.4 |
| 20260503190515 | 63 | 158 | 3.5 | 5.2 | 0.00 | 0.00 | 0.00 | 62 | 1013.4 |
| 20260503185516 | 63 | 90 | 1.7 | 2.6 | 0.00 | 0.00 | 0.00 | 61 | 1013.4 |
| 20260503184515 | 62 | 315 | 2.6 | 3.5 | 0.00 | 0.00 | 0.00 | 64 | 1013.4 |
| 20260503183516 | 62 | 135 | 2.6 | 3.5 | 0.00 | 0.00 | 0.00 | 65 | 1013.5 |
| 20260503182515 | 62 | 225 | 3.5 | 5.2 | 0.00 | 0.00 | 0.00 | 66 | 1013.6 |
| 20260503181515 | 61 | 158 | 0.9 | 1.7 | 0.00 | 0.00 | 0.00 | 70 | 1013.6 |
| 20260503180515 | 60 | 293 | 1.7 | 4.3 | 0.00 | 0.00 | 0.00 | 71 | 1013.6 |
| 20260503175555 | 60 | 225 | 1.7 | 3.5 | 0.00 | 0.00 | 0.00 | 72 | 1013.6 |
| 20260503174515 | 59 | 225 | 1.7 | 2.6 | 0.00 | 0.00 | 0.00 | 74 | 1013.7 |
| 20260503173555 | 58 | 248 | 2.6 | 3.5 | 0.00 | 0.00 | 0.00 | 75 | 1013.7 |
| 20260503172515 | 58 | 270 | 3.5 | 4.3 | 0.00 | 0.00 | 0.00 | 75 | 1013.6 |
| 20260503171515 | 60 | 270 | 7.0 | 10.4 | 0.00 | 0.00 | 0.00 | 74 | 1013.6 |
| 20260503170515 | 60 | 338 | 0.9 | 3.5 | 0.00 | 0.00 | 0.00 | 74 | 1013.4 |
| 20260503150517 | 57 | 90 | 2.6 | 4.3 | 0.00 | 0.00 | 0.00 | 78 | 1013.0 |
| 20260503130517 | 56 | 293 | 2.6 | 4.3 | 0.00 | 0.00 | 0.00 | 78 | 1011.8 |
| 20260503110517 | 56 | 270 | 1.7 | 3.5 | 0.00 | 0.00 | 0.00 | 79 | 1011.8 |
| 20260503090116 | 56 | 270 | 2.6 | 3.5 | 0.00 | 0.00 | 0.00 | 80 | 1011.8 |
| 20260503081117 | 56 | 315 | 2.6 | 3.5 | 0.00 | 0.00 | 0.00 | 79 | 1012.3 |
| 20260503080156 | 56 | 338 | 1.7 | 1.7 | 0.00 | 0.00 | 0.00 | 79 | 1012.4 |
| 20260503072116 | 56 | 0 | 2.6 | 4.3 | 0.00 | 0.00 | 0.00 | 80 | 1012.5 |
| 20260503071117 | 56 | 0 | 2.6 | 3.5 | 0.00 | 0.00 | 0.00 | 80 | 1012.5 |
| 20260503070116 | 56 | 23 | 2.6 | 4.3 | 0.00 | 0.00 | 0.00 | 79 | 1012.5 |
| 20260503060116 | 56 | 45 | 2.6 | 3.5 | 0.00 | 0.00 | 0.00 | 78 | 1012.6 |
| 20260503055119 | 56 | 0 | 3.5 | 4.3 | 0.00 | 0.00 | 0.00 | 78 | 1012.7 |
| 20260503054116 | 57 | 338 | 3.5 | 5.2 | 0.00 | 0.00 | 0.00 | 78 | 1012.8 |
| 20260503053156 | 57 | 23 | 1.7 | 1.7 | 0.00 | 0.00 | 0.00 | 78 | 1012.8 |
| 20260503052116 | 57 | 0 | 3.5 | 4.3 | 0.00 | 0.00 | 0.00 | 78 | 1012.9 |
| 20260503051158 | 57 | 0 | 4.3 | 7.0 | 0.00 | 0.00 | 0.00 | 78 | 1012.9 |
| 20260503050116 | 57 | 0 | 3.5 | 6.1 | 0.00 | 0.00 | 0.00 | 78 | 1012.8 |
| 20260503045116 | 57 | 23 | 3.5 | 4.3 | 0.00 | 0.00 | 0.00 | 78 | 1012.7 |
| 20260503044116 | 57 | 23 | 3.5 | 4.3 | 0.00 | 0.00 | 0.00 | 78 | 1012.6 |
| 20260503043116 | 57 | 0 | 2.6 | 3.5 | 0.00 | 0.00 | 0.00 | 78 | 1012.5 |
| 20260503042116 | 57 | 45 | 2.6 | 5.2 | 0.00 | 0.00 | 0.00 | 78 | 1012.5 |
| 20260503041116 | 57 | 45 | 3.5 | 6.1 | 0.00 | 0.00 | 0.00 | 78 | 1012.4 |
| 20260503040116 | 57 | 338 | 4.3 | 6.1 | 0.00 | 0.00 | 0.00 | 78 | 1012.3 |
| 20260503035116 | 57 | 338 | 5.2 | 6.1 | 0.00 | 0.00 | 0.00 | 78 | 1012.2 |
| 20260503034157 | 57 | 338 | 4.3 | 7.8 | 0.00 | 0.00 | 0.00 | 77 | 1012.1 |
| 20260503033116 | 57 | 23 | 5.2 | 7.0 | 0.00 | 0.00 | 0.00 | 76 | 1012.0 |
| 20260503032116 | 57 | 23 | 4.3 | 7.8 | 0.00 | 0.00 | 0.00 | 76 | 1011.9 |
| 20260503031116 | 58 | 0 | 4.3 | 7.0 | 0.00 | 0.00 | 0.00 | 75 | 1011.9 |
| 20260503030116 | 58 | 0 | 5.2 | 7.8 | 0.00 | 0.00 | 0.00 | 75 | 1011.7 |
| 20260503025116 | 58 | 338 | 6.1 | 9.6 | 0.00 | 0.00 | 0.00 | 76 | 1011.5 |
| 20260503024116 | 58 | 0 | 5.2 | 8.7 | 0.00 | 0.00 | 0.00 | 76 | 1011.5 |
| 20260503023116 | 59 | 23 | 4.3 | 6.1 | 0.00 | 0.00 | 0.00 | 75 | 1011.4 |
| 20260503022116 | 59 | 23 | 7.0 | 10.4 | 0.00 | 0.00 | 0.00 | 74 | 1011.3 |
| 20260503021117 | 60 | 338 | 7.0 | 8.7 | 0.00 | 0.00 | 0.00 | 75 | 1011.4 |
| 20260503020116 | 60 | 0 | 7.0 | 11.3 | 0.00 | 0.00 | 0.00 | 75 | 1011.3 |
| 20260503015116 | 60 | 45 | 7.8 | 10.4 | 0.00 | 0.00 | 0.00 | 74 | 1011.2 |
| 20260503014116 | 61 | 23 | 7.0 | 9.6 | 0.00 | 0.00 | 0.00 | 74 | 1011.3 |
| 20260503013118 | 61 | 338 | 7.0 | 8.7 | 0.00 | 0.00 | 0.00 | 73 | 1011.3 |
| 20260503012117 | 61 | 0 | 4.3 | 6.1 | 0.00 | 0.00 | 0.00 | 75 | 1011.3 |
| 20260503011156 | 62 | 45 | 7.8 | 10.4 | 0.00 | 0.00 | 0.00 | 74 | 1011.3 |
| 20260503010117 | 63 | 45 | 4.3 | 5.2 | 0.00 | 0.00 | 0.00 | 74 | 1011.4 |
| 20260503005116 | 63 | 45 | 5.2 | 8.7 | 0.00 | 0.00 | 0.00 | 73 | 1011.3 |
| 20260503004116 | 63 | 0 | 6.1 | 7.8 | 0.00 | 0.00 | 0.00 | 73 | 1011.3 |
| 20260503003115 | 62 | 45 | 9.6 | 13.0 | 0.00 | 0.00 | 0.00 | 73 | 1011.4 |
| 20260503002116 | 63 | 45 | 7.8 | 11.3 | 0.00 | 0.00 | 0.00 | 72 | 1011.4 |
| 20260503001116 | 63 | 0 | 7.0 | 13.0 | 0.00 | 0.00 | 0.00 | 72 | 1011.4 |
| 20260503000115 | 64 | 0 | 5.2 | 11.3 | 0.00 | 0.00 | 0.00 | 70 | 1011.4 |
| 20260502235115 | 65 | 315 | 7.0 | 9.6 | 0.00 | 0.00 | 0.00 | 69 | 1011.4 |
| 20260502234119 | 65 | 23 | 9.6 | 13.0 | 0.00 | 0.00 | 0.00 | 70 | 1011.4 |
| 20260502233116 | 65 | 0 | 6.1 | 10.4 | 0.00 | 0.00 | 0.00 | 69 | 1011.5 |
| 20260502232115 | 65 | 0 | 7.8 | 10.4 | 0.00 | 0.00 | 0.00 | 70 | 1011.6 |
| 20260502231115 | 65 | 23 | 7.8 | 11.3 | 0.00 | 0.00 | 0.00 | 69 | 1011.7 |
| 20260502230115 | 65 | 23 | 6.1 | 8.7 | 0.00 | 0.00 | 0.00 | 69 | 1011.8 |
| 20260502225115 | 65 | 0 | 7.0 | 11.3 | 0.00 | 0.00 | 0.00 | 69 | 1011.9 |
| 20260502224115 | 65 | 315 | 5.2 | 8.7 | 0.00 | 0.00 | 0.00 | 69 | 1012.1 |
| 20260502223117 | 66 | 45 | 7.0 | 9.6 | 0.00 | 0.00 | 0.00 | 69 | 1012.2 |
| 20260502222116 | 66 | 338 | 3.5 | 7.0 | 0.00 | 0.00 | 0.00 | 69 | 1012.4 |
| 20260502221116 | 66 | 315 | 6.1 | 7.8 | 0.00 | 0.00 | 0.00 | 67 | 1012.6 |
| 20260502220116 | 66 | 23 | 6.1 | 10.4 | 0.00 | 0.00 | 0.00 | 69 | 1012.7 |
| 20260502215115 | 66 | 0 | 6.1 | 7.8 | 0.00 | 0.00 | 0.00 | 69 | 1012.8 |
| 20260502214313 | 66 | 0.0 | 0.0 | 0.00 | 0.00 | 0.00 | 69 | 1012.8 | |
| 20260502213515 | 66 | 338 | 6.1 | 8.7 | 0.00 | 0.00 | 0.00 | 69 | 1012.9 |
| 20260502212515 | 67 | 23 | 2.6 | 5.2 | 0.00 | 0.00 | 0.00 | 70 | 1012.8 |
| 20260502211515 | 66 | 338 | 6.1 | 11.3 | 0.00 | 0.00 | 0.00 | 70 | 1013.0 |
| 20260502210516 | 66 | 0 | 5.2 | 8.7 | 0.00 | 0.00 | 0.00 | 70 | 1013.1 |
| 20260502205516 | 66 | 338 | 3.5 | 6.1 | 0.00 | 0.00 | 0.00 | 70 | 1013.2 |
| 20260502204556 | 66 | 45 | 5.2 | 7.0 | 0.00 | 0.00 | 0.00 | 70 | 1013.3 |
| 20260502203515 | 66 | 338 | 3.5 | 7.0 | 0.00 | 0.00 | 0.00 | 69 | 1013.4 |
| 20260502202555 | 66 | 45 | 4.3 | 7.8 | 0.00 | 0.00 | 0.00 | 69 | 1013.5 |
| 20260502201515 | 65 | 68 | 4.3 | 6.1 | 0.00 | 0.00 | 0.00 | 71 | 1013.7 |
| 20260502200515 | 65 | 23 | 5.2 | 7.8 | 0.00 | 0.00 | 0.00 | 70 | 1013.8 |
| 20260502195516 | 65 | 45 | 3.5 | 6.1 | 0.00 | 0.00 | 0.00 | 70 | 1013.9 |
| 20260502194515 | 65 | 45 | 4.3 | 5.2 | 0.00 | 0.00 | 0.00 | 71 | 1014.0 |
| 20260502193515 | 65 | 90 | 2.6 | 4.3 | 0.00 | 0.00 | 0.00 | 72 | 1014.0 |